OE7BJT-13 Weather Reports


Display with metric or nautical units.
time (UTC)temp
F
wind
direction
speed
MPH
gust
MPH
rain 1hr
in
rain 24hr
in
rain mn
in
humidity
%
barometer
mb
20260507075440 57 0 0.0 0.0 0.00 0.00 0.00 81 1013.0
20260507074435 57 0 0.0 0.0 0.00 0.00 0.00 92 1013.0
20260507073429 55 0 0.0 0.0 0.00 0.00 0.00 10 1013.0
20260507072423 55 0 0.0 0.0 0.00 0.00 0.00 97 1013.0
20260507071418 55 0 0.0 0.0 0.00 0.00 0.00 10 1013.0
20260507070412 54 0 0.0 0.0 0.00 0.00 0.00 10 1013.0
20260507065406 54 0 0.0 0.0 0.00 0.00 0.00 10 1013.0
20260507064400 53 0 0.0 0.0 0.00 0.00 0.00 10 1013.0
20260507063355 53 0 0.0 0.0 0.00 0.00 0.00 10 1013.0
20260507062349 53 0 0.0 0.0 0.00 0.00 0.00 10 1013.0
20260507061343 53 0 0.0 0.0 0.00 0.00 0.00 10 1013.0
20260507055332 52 0 0.0 0.0 0.00 0.00 0.00 10 1013.0
20260507054326 52 0 0.0 0.0 0.00 0.00 0.00 10 1013.0
20260507053320 51 0 0.0 0.0 0.00 0.00 0.00 10 1013.0
20260507052314 51 0 0.0 0.0 0.00 0.00 0.00 10 1013.0
20260507051308 51 0 0.0 0.0 0.00 0.00 0.00 10 1013.0
20260507050303 50 0 0.0 0.0 0.00 0.00 0.00 10 1012.0
20260507043245 50 0 0.0 0.0 0.00 0.00 0.00 10 1012.0
20260507042240 50 0 0.0 0.0 0.00 0.00 0.00 10 1012.0
20260507041234 49 0 0.0 0.0 0.00 0.00 0.00 10 1012.0
20260507040228 48 0 0.0 0.0 0.00 0.00 0.00 10 1012.0
20260507035222 50 0 0.0 0.0 0.00 0.00 0.00 10 1012.0
20260507033211 49 0 0.0 0.0 0.00 0.00 0.00 10 1012.0
20260507032205 49 0 0.0 0.0 0.00 0.00 0.00 10 1012.0
20260507031159 49 0 0.0 0.0 0.00 0.00 0.00 10 1012.0
20260507030154 49 0 0.0 0.0 0.00 0.00 0.00 10 1012.0
20260507025148 49 0 0.0 0.0 0.00 0.00 0.00 10 1012.0
20260507024142 49 0 0.0 0.0 0.00 0.00 0.00 10 1012.0
20260507023136 49 0 0.0 0.0 0.00 0.00 0.00 10 1012.0
20260507022131 49 0 0.0 0.0 0.00 0.00 0.00 10 1012.0
20260507021125 49 0 0.0 0.0 0.00 0.00 0.00 10 1011.0
20260507020119 48 0 0.0 0.0 0.00 0.00 0.00 10 1011.0
20260507015113 49 0 0.0 0.0 0.00 0.00 0.00 10 1011.0
20260507014108 50 0 0.0 0.0 0.00 0.00 0.00 10 1011.0
20260507013102 50 0 0.0 0.0 0.00 0.00 0.00 10 1011.0
20260507012056 50 0 0.0 0.0 0.00 0.00 0.00 10 1011.0
20260507011050 50 0 0.0 0.0 0.00 0.00 0.00 10 1011.0
20260507010044 51 0 0.0 0.0 0.00 0.00 0.00 10 1011.0
20260507005039 51 0 0.0 0.0 0.00 0.00 0.00 10 1011.0
20260507004033 51 0 0.0 0.0 0.00 0.00 0.00 10 1011.0
20260507003027 51 0 0.0 0.0 0.00 0.00 0.00 10 1011.0
20260507002021 51 0 0.0 0.0 0.00 0.00 0.00 10 1011.0
20260507001016 52 0 0.0 0.0 0.00 0.00 0.00 10 1011.0
20260506235004 52 0 0.0 0.0 0.00 0.00 0.00 10 1011.0
20260506233958 52 0 0.0 0.0 0.00 0.00 0.00 10 1011.0
20260506232953 52 0 0.0 0.0 0.00 0.00 0.00 10 1011.0
20260506231947 52 0 0.0 0.0 0.00 0.00 0.00 10 1011.0
20260506230941 52 0 0.0 0.0 0.00 0.00 0.00 10 1011.0
20260506225935 52 0 0.0 0.0 0.00 0.00 0.00 10 1011.0
20260506224930 52 0 0.0 0.0 0.00 0.00 0.00 10 1011.0
20260506223924 52 0 0.0 0.0 0.00 0.00 0.00 10 1011.0
20260506221912 53 0 0.0 0.0 0.00 0.00 0.00 10 1011.0
20260506220907 53 0 0.0 0.0 0.00 0.00 0.00 10 1011.0
20260506215901 54 0 0.0 0.0 0.00 0.00 0.00 10 1011.0
20260506214855 53 0 0.0 0.0 0.00 0.00 0.00 10 1011.0
20260506213849 53 0 0.0 0.0 0.00 0.00 0.00 10 1011.0
20260506212844 53 0 0.0 0.0 0.00 0.00 0.00 10 1010.0
20260506211838 53 0 0.0 0.0 0.00 0.00 0.00 10 1010.0
20260506205826 53 0 0.0 0.0 0.00 0.00 0.00 10 1010.0
20260506204821 52 0 0.0 0.0 0.00 0.00 0.00 10 1010.0
20260506203815 53 0 0.0 0.0 0.00 0.00 0.00 95 1010.0
20260506201804 54 0 0.0 0.0 0.00 0.00 0.00 84 1010.0
20260506200758 55 0 0.0 0.0 0.00 0.00 0.00 84 1009.0
20260506195752 55 0 0.0 0.0 0.00 0.00 0.00 87 1009.0
20260506194747 55 0 0.0 0.0 0.00 0.00 0.00 88 1009.0
20260506193741 55 0 0.0 0.0 0.00 0.00 0.00 90 1009.0
20260506192736 56 0 0.0 0.0 0.00 0.00 0.00 89 1009.0
20260506191730 56 0 0.0 0.0 0.00 0.00 0.00 88 1009.0
20260506190724 57 0 0.0 0.0 0.00 0.00 0.00 90 1009.0
20260506175645 64 0 0.0 0.0 0.00 0.00 0.00 58 1007.0
20260506174640 62 0 0.0 0.0 0.00 0.00 0.00 68 1007.0
20260506173634 66 0 0.0 0.0 0.00 0.00 0.00 48 1006.0
20260506171623 65 0 0.0 0.0 0.00 0.00 0.00 47 1006.0
20260506170617 66 0 0.0 0.0 0.00 0.00 0.00 40 1005.0
20260506165612 66 0 0.0 0.0 0.00 0.00 0.00 39 1005.0
20260506164606 66 0 0.0 0.0 0.00 0.00 0.00 39 1005.0
20260506163600 67 0 0.0 0.0 0.00 0.00 0.00 38 1005.0
20260506162555 68 0 0.0 0.0 0.00 0.00 0.00 38 1005.0
20260506161549 68 0 0.0 0.0 0.00 0.00 0.00 38 1005.0
20260506160544 67 0 0.0 0.0 0.00 0.00 0.00 37 1005.0
20260506155538 68 0 0.0 0.0 0.00 0.00 0.00 37 1005.0
20260506154532 69 0 0.0 0.0 0.00 0.00 0.00 38 1004.0
20260506153527 70 0 0.0 0.0 0.00 0.00 0.00 38 1004.0
20260506152521 70 0 0.0 0.0 0.00 0.00 0.00 36 1004.0
20260506151516 71 0 0.0 0.0 0.00 0.00 0.00 35 1004.0
20260506145505 71 0 0.0 0.0 0.00 0.00 0.00 40 1004.0
20260506144459 71 0 0.0 0.0 0.00 0.00 0.00 40 1004.0
20260506143453 72 0 0.0 0.0 0.00 0.00 0.00 39 1004.0
20260506142448 72 0 0.0 0.0 0.00 0.00 0.00 35 1004.0
20260506141442 72 0 0.0 0.0 0.00 0.00 0.00 32 1004.0
20260506135431 71 0 0.0 0.0 0.00 0.00 0.00 37 1004.0
20260506134425 72 0 0.0 0.0 0.00 0.00 0.00 34 1004.0
20260506133420 71 0 0.0 0.0 0.00 0.00 0.00 35 1004.0
20260506132414 72 0 0.0 0.0 0.00 0.00 0.00 35 1004.0
20260506130403 75 0 0.0 0.0 0.00 0.00 0.00 34 1004.0
20260506125357 75 0 0.0 0.0 0.00 0.00 0.00 33 1004.0
20260506124352 73 0 0.0 0.0 0.00 0.00 0.00 33 1004.0
20260506123346 75 0 0.0 0.0 0.00 0.00 0.00 33 1004.0
20260506122341 73 0 0.0 0.0 0.00 0.00 0.00 36 1004.0
20260506121335 72 0 0.0 0.0 0.00 0.00 0.00 34 1005.0
20260506120329 74 0 0.0 0.0 0.00 0.00 0.00 35 1005.0
20260506114318 72 0 0.0 0.0 0.00 0.00 0.00 37 1005.0
20260506113313 74 0 0.0 0.0 0.00 0.00 0.00 35 1005.0
20260506112307 74 0 0.0 0.0 0.00 0.00 0.00 35 1005.0
20260506111301 74 0 0.0 0.0 0.00 0.00 0.00 35 1005.0
20260506110256 71 0 0.0 0.0 0.00 0.00 0.00 36 1005.0
20260506105250 73 0 0.0 0.0 0.00 0.00 0.00 35 1005.0
20260506104245 73 0 0.0 0.0 0.00 0.00 0.00 35 1006.0
20260506103239 72 0 0.0 0.0 0.00 0.00 0.00 36 1006.0
20260506102233 71 0 0.0 0.0 0.00 0.00 0.00 40 1006.0
20260506101228 70 0 0.0 0.0 0.00 0.00 0.00 46 1006.0
20260506100222 66 0 0.0 0.0 0.00 0.00 0.00 52 1007.0
20260506095217 63 0 0.0 0.0 0.00 0.00 0.00 57 1007.0
20260506094211 62 0 0.0 0.0 0.00 0.00 0.00 64 1007.0
20260506093205 61 0 0.0 0.0 0.00 0.00 0.00 63 1007.0
20260506092200 61 0 0.0 0.0 0.00 0.00 0.00 64 1007.0
20260506091154 62 0 0.0 0.0 0.00 0.00 0.00 65 1007.0
20260506090149 62 0 0.0 0.0 0.00 0.00 0.00 62 1007.0
20260506085143 62 0 0.0 0.0 0.00 0.00 0.00 57 1007.0
20260506084138 62 0 0.0 0.0 0.00 0.00 0.00 62 1007.0
20260506082126 62 0 0.0 0.0 0.00 0.00 0.00 64 1007.0
20260506081121 60 0 0.0 0.0 0.00 0.00 0.00 66 1007.0
20260506080115 59 0 0.0 0.0 0.00 0.00 0.00 67 1007.0